#timestamp,LO_Frequency,Hit 
1501023615.7,286047009.5,N
1501023635.5,286047009.8,N
1501023655.4,286047007.7,N
1501023675.2,286047009.8,N
1501023695.0,286047008.4,N
1501023695.9,286047008.4,N
1501023715.8,286047010.5,N
1501023735.6,286047009.5,N
1501023755.4,286047011.6,N
1501023775.2,286047013.1,N
1501023795.1,286047016.9,N
1501023796.0,286047016.9,N
1501023815.8,286047013.1,N
1501023835.6,286047013.4,N
1501023855.5,286047011.9,N
1501023875.3,286047011.8,N
1501023895.1,286047012.2,N
1501023915.9,286047010.2,N
1501023935.7,286047010.7,N
1501023955.5,286047008.6,N
1501023975.3,286047005.0,N
1501023995.2,286047005.4,N
1501024015.0,286047004.6,N
1501024015.9,286047004.6,N
1501024035.7,286047000.0,N
1501024055.6,286046996.9,N
1501024075.4,286046999.4,N
1501024095.2,286046998.8,N
1501024115.1,286046998.6,N
1501024116.0,286046998.6,N
1501024135.8,286047000.5,N
1501024155.6,286046998.5,N
1501024175.5,286046998.2,N
1501024195.3,286047001.0,N
1501024215.1,286046999.0,N
1501024235.9,286046998.6,N
1501024255.7,286046999.0,N
1501024275.5,286046999.0,N
1501024295.3,286047002.8,N
1501024315.2,286047001.9,N
1501024335.0,286047000.3,N
1501024335.9,286047000.3,N
1501024355.7,286046998.6,N
1501024375.6,286046999.2,N
1501024395.4,286046998.6,N
1501024415.2,286046998.5,N
1501024435.1,286046996.9,N
1501024436.0,286046996.9,N
1501024455.8,286046993.9,N
1501024475.6,286046993.5,N
1501024495.5,286046997.5,N
1501024515.3,286046992.5,N
1501024535.1,286046988.5,N
1501024555.9,286046993.5,N
1501024575.7,286046991.7,N
1501024595.5,286046992.6,N
1501024615.3,286046989.7,N
1501024635.2,286046991.8,N
1501024655.0,286046998.4,N
1501024655.9,286046998.4,N
1501024675.7,286047001.9,N
1501024695.6,286047003.7,N
1501024715.4,286047005.6,N
1501024735.2,286047009.2,N
1501024755.1,286047012.4,N
1501024756.0,286047012.4,N
1501024775.8,286047009.6,N
1501024795.6,286047013.8,N
1501024815.5,286047011.9,N
1501024835.3,286047010.2,N
1501024855.1,286047010.1,N
1501024875.8,286047008.8,N
1501024895.7,286047005.1,N
1501024915.5,286047006.1,N
1501024935.3,286047006.4,N
1501024955.2,286047006.1,N
1501024975.9,286047006.1,N
1501024995.7,286047012.2,N
1501025015.6,286047010.3,N
1501025035.4,286047009.5,N
1501025055.2,286047010.6,N
1501025075.1,286047011.2,N
1501025076.0,286047011.2,N
1501025095.8,286047013.8,N
1501025115.6,286047013.5,N
1501025135.4,286047011.0,N
1501025155.3,286047009.8,N
1501025175.1,286047009.6,N
1501025195.8,286047010.9,N
1501025215.7,286047009.6,N
1501025235.5,286047007.9,N
1501025255.3,286047007.3,N
1501025275.2,286047010.5,N
1501025295.9,286047007.8,N
1501025315.7,286047007.8,N
1501025335.6,286047009.1,N
1501025355.4,286047005.3,N
1501025375.2,286047009.8,N
1501025395.1,286047009.4,N
1501025396.0,286047009.4,N
1501025415.8,286047011.7,N
1501025435.6,286047010.3,N
1501025455.4,286047011.1,N
1501025475.3,286047011.1,N
1501025495.1,286047014.8,N
1501025515.8,286047015.5,N
1501025535.7,286047011.7,N
1501025555.5,286047015.0,N
1501025575.3,286047012.3,N
1501025595.2,286047007.9,N
1501025615.9,286047008.4,N
1501025635.7,286047012.1,N
1501025655.6,286047011.7,N
1501025675.4,286047010.3,N
1501025695.2,286047009.3,N
1501025715.0,286047015.1,N
1501025716.0,286047015.1,N
1501025735.8,286047009.6,N
1501025755.6,286047012.0,N
1501025775.4,286047011.8,N
1501025795.3,286047011.8,N
1501025815.1,286047015.1,N
1501025835.8,286047010.9,N
1501025855.7,286047010.4,N
1501025875.5,286047011.4,N
1501025895.3,286047010.0,N
1501025915.2,286047007.9,N
1501025935.9,286047010.8,N
1501025955.7,286047012.3,N
1501025975.5,286047010.8,N
1501025995.4,286047010.7,N
1501026015.2,286047010.3,N
1501026035.0,286047010.2,N
1501026035.9,286047010.2,N
1501026055.8,286047011.3,N
1501026075.6,286047013.5,N
1501026095.4,286047013.0,N
1501026115.3,286047014.8,N
1501026135.1,286047013.0,N
1501026136.0,286047013.0,N
1501026155.8,286047012.9,N
1501026175.7,286047014.7,N
1501026195.5,286047016.9,N
1501026215.3,286047014.7,N
1501026235.1,286047014.6,N
1501026255.9,286047016.0,N
1501026275.7,286047016.0,N
1501026295.5,286047015.9,N
1501026315.4,286047016.2,N
1501026335.2,286047018.3,N
1501026355.0,286047014.7,N
1501026355.9,286047014.7,N
1501026375.8,286047015.0,N
1501026395.6,286047012.5,N
1501026415.4,286047013.9,N
1501026435.3,286047013.3,N
1501026455.1,286047010.4,N
1501026456.0,286047010.4,N
1501026475.8,286047004.5,N
1501026495.7,286047003.8,N
1501026515.5,286047007.3,N
1501026535.3,286047003.3,N
1501026555.1,286047004.3,N
1501026575.9,286047004.2,N
1501026595.7,286047005.9,N
1501026615.5,286047003.6,N
1501026635.4,286047001.2,N
1501026655.2,286047002.6,N
1501026675.0,286047004.0,N
1501026675.9,286047004.0,N
1501026695.8,286047002.1,N
1501026715.6,286047002.0,N
1501026735.4,286047000.3,N
1501026755.3,286047002.1,N
1501026775.1,286047001.5,N
1501026776.0,286047001.5,N
1501026795.8,286047002.0,N
1501026815.7,286047000.8,N
1501026835.5,286046999.8,N
1501026855.3,286047003.2,N
1501026875.1,286047001.9,N
1501026895.9,286047000.4,N
1501026915.7,286047002.7,N
1501026935.5,286047005.9,N
1501026955.4,286047002.0,N
1501026975.2,286047002.5,N
1501026995.0,286046998.5,N
1501026995.9,286046998.5,N
1501027015.8,286047000.2,N
1501027035.6,286047001.2,N
1501027055.4,286046998.5,N
1501027075.3,286047000.3,N
1501027095.1,286047000.4,N
1501027096.0,286047000.4,N
1501027115.8,286046998.7,N
1501027135.6,286046999.2,N
1501027155.5,286046999.1,N
1501027175.3,286046996.6,N
1501027195.1,286046998.9,N
